Location: Alto Pass Reservoir
(37.5801°N, 89.3084°W)
Time: 11:55:11
(UTC+00:00)

NEOSSAT - Pass Details

Date: 03 October 2022
Orbit: 767 x 784 km, 98.4° (Epoch: 26 November)

Event Time Altitude Azimuth Distance (km) Brightness Sun altitude
Rises 00:33:49 0° 16° (NNE) 3,280 ? -11.7°
Reaches altitude 10° 00:36:10 10° 19° (NNE) 2,349 ? -12.2°
Maximum altitude 00:41:19 67° 101° (ESE) 851 ? -13.2°
Drops below altitude 10° 00:46:27 10° 184° (S) 2,331 ? -14.2°
Sets 00:48:46 0° 187° (S) 3,254 ? -14.7°
